sat.trackr.live / text

‹ back to catalog

KUIPER-00031

NORAD 63744 · 2025-088W

PAYLOAD ACTIVE UNKNOWN

§ Identity

Operator
Country
US
Launch date
2025-04-28
Launch site
AFETR
Launch vehicle
Mass (kg)
RCS (m²)

External: N2YO · Heavens-Above · Gunter

§ Orbital elements

Epoch: 2026-09-21T09:29:44.088288Z

Period
97.30 min
Inclination
51.9035°
Eccentricity
0.0000210
Mean motion
14.79931738 rev/d
Perigee alt
629.4 km
Apogee alt
629.7 km
Semi-major
7,007.7 km
B*
1.2856e-4
RAAN
310.1764°
Arg perigee
45.2600°
Mean anomaly
314.8380°
Rev number
7,653

§ Raw data

KUIPER-000311 63744U 25088W   26264.39564917  .00000759  00000+0  12856-3 0  99962 63744  51.9035 310.1764 0000210  45.2600 314.8380 14.79931738 76531

JSON: /api/v1/satellites/63744 · /tle

For live sub-satellite position, see the globe view (requires WebGL).

§ Visibility from observer

Set your observer location to see the next 7 days of passes ≥ 10°. The values pass through the URL so the page stays shareable.

No JS? Fill the form by hand. The geolocation button needs JavaScript.